Skip Page Navigation
NASA JPL Caltech
NASA Logo - Jet Propulsion Laboratory + View the NASA Portal
+ Center for Near-Earth Object Studies
JPL Home Earth Solar System Stars & Galaxies Technology
JPL Solar System Dynamics
BODIES ORBITS EPHEMERIDES TOOLS PHYSICAL DATA DISCOVERY FAQ SITE MAP
IMPORTANT: The SSD Announcement email list is now available. Major changes are coming in the near future, including possible hostname and/or URL changes. To be notified of such changes, subscribe to this email list.

Please visit this page for more details.


JPL Small-Body Database Browser
Search: [ help ]  
173156 (1996 RV9)
Classification: Main-belt Asteroid          SPK-ID: 2173156
Ephemeris | Orbit Diagram | Orbital Elements | Mission Design | Physical Parameters | Discovery Circumstances ]

[ show orbit diagram ]
Orbital Elements at Epoch 2458600.5 (2019-Apr-27.0) TDB
Reference: JPL 12 (heliocentric ecliptic J2000)
 Element Value Uncertainty (1-sigma)   Units 
e .138190911300839 4.5734e-08  
a 2.269899696238476 1.38e-08 au
q 1.956220188653783 1.0053e-07 au
i 6.072876750880022 7.7572e-06 deg
node 352.6116851736202 4.222e-05 deg
peri 71.84903013366659 5.3593e-05 deg
M 158.1485282491387 3.2757e-05 deg
tp 2458051.754362203632
(2017-Oct-25.25436220)
0.00011107 TDB
period 1249.132266950252
3.42
1.1391e-05
3.119e-08
d
yr
n .2882000645767783 2.6282e-09 deg/d
Q 2.583579203823168 1.5707e-08 au
  Orbit Determination Parameters
   # obs. used (total)      303  
   data-arc span      8272 days (22.65 yr)  
   first obs. used      1996-09-07  
   last obs. used      2019-05-02  
   planetary ephem.      DE431  
   SB-pert. ephem.      SB431-N16  
   condition code      0  
   norm. resid. RMS      .59855  
   source      ORB  
   producer      Otto Matic  
   solution date      2019-May-30 07:41:52  

Additional Information
 Earth MOID = .97888 au 
 Jupiter MOID = 2.71196 au 
 T_jup = 3.593 
[ show covariance matrix ]

Ephemeris | Orbit Diagram | Orbital Elements | Mission Design | Physical Parameters | Discovery Circumstances ]

Physical Parameter Table
Parameter Symbol Value Units Sigma Reference Notes
absolute magnitude H 16.9   n/a MPO436860  

173156 (1996 RV9)          Discovered 1996-Sep-07 by Spacewatch at Kitt Peak
Reference: 20080122/Numbers.arcLast Updated: 2008-01-28

Alternate Designations
 1996 RV9 = 2003 ST104 
Ephemeris | Orbit Diagram | Orbital Elements | Mission Design | Physical Parameters | Discovery Circumstances ]
ABOUT SSD CREDITS/AWARDS PRIVACY/COPYRIGHT GLOSSARY LINKS
FirstGov 2019-Dec-14 19:23 UT
(server date/time)  
NASA Home Page
Site Manager:   Ryan S. Park
Webmaster  Alan B. Chamberlin